Regional Weather Roundup
Issued by NWS Sterling, VA

Home | Current Version | Previous Version | Text Only | Print | Product List | Glossary Off
Versions: 1 2 3 4 5 6 7 8 9 10 11 12 13 14 15 16 17 18 19 20 21 22 23 24 25 26 27 28 29 30 31 32 33 34 35 36 37 38 39 40 41 42 43 44 45 46 47 48 49 50

000
ASUS41 KLWX 312010
RWRLWX

REGIONAL WEATHER ROUNDUP
NATIONAL WEATHER SERVICE BALTIMORE MD/WASHINGTON DC
400 PM EDT THU JUL 31 2014

Note: "FAIR" indicates few or no clouds below 12,000 feet
with no significant weather and/or obstructions to visibility.
 TC=TEMPERATURE CELSIUS

 * =Non NWS site. Station does not report precipitation (e.g. rain,
    snow, etc.), thunder, or fog.

DCZ001-MDZ009-015-VAZ040>042-051-053>054-312100-
WASHINGTON METRO
  /KDAA//-FT BELVOIR

CITY           SKY/WX    TMP DP  RH WIND       PRES   REMARKS
WASHINGTON NAT PTSUNNY   87  57  35 SW5       30.08F
DULLES         MOSUNNY   82  54  37 S9        30.09S
ANDREWS AFB    MOSUNNY   87  56  35 SW14G21   30.09S
QUANTICO       PTSUNNY   86  56  35 SW6       30.09S
COLLEGE PARK*  PTSUNNY   86  57  37 CALM      30.08S
LEESBURG*      SUNNY     86  61  42 W7        30.10S
MANASSAS*      MOSUNNY   84  57  39 W6        30.09S
GAITHERSBURG*  CLOUDY    82  57  42 S3        30.13S

$$

MDZ006>007-011-014-312100-
BALTIMORE METRO

CITY           SKY/WX    TMP DP  RH WIND       PRES   REMARKS
BWI AIRPORT    PTSUNNY   85  56  37 VRB3      30.07F
MD SCIENCE CTR   N/A     85  55  35 MISG      30.08S
MARTIN STATE   MOSUNNY   82  68  61 SE14      30.10S
ANNAPOLIS      MOSUNNY   82  66  58 S13G21    30.08F
FORT MEADE*    MOSUNNY   81  61  50 CALM      30.10F

$$

MDZ012-015-019>023-312100-
MARYLAND EASTERN SHORE

CITY           SKY/WX    TMP DP  RH WIND       PRES   REMARKS
OCEAN CITY     PTSUNNY   77  69  76 S8        30.12F
SALISBURY      MOSUNNY   86  59  39 W10       30.12R
BAY BRIDGE AP*   N/A     82  59  44 SE13      30.09F
CAMBRIDGE*     SUNNY     84  59  42 SW7       30.10S
EASTON*        MOSUNNY   86  63  45 SW8       30.13F

$$

MDZ017>025-312100-
SOUTHERN MARYLAND

CITY           SKY/WX    TMP DP  RH WIND       PRES   REMARKS
PATUXENT RIVER PTSUNNY   81  68  64 SE12      30.10S
ST INIGOES     PTSUNNY   81  62  52 S9        30.09F
LEONARDTOWN*   PTSUNNY   82  55  39 SW7       30.12S

$$

MDZ003>005-312100-
NORTH CENTRAL MARYLAND

CITY           SKY/WX    TMP DP  RH WIND       PRES   REMARKS
FREDERICK*     MOSUNNY   86  63  45 W7        30.11F
HAGERSTOWN APT CLOUDY    80  57  45 VRB5      30.09F
WESTMINSTER*   SUNNY     82  61  47 SW6       30.11S

$$

MDZ501>502-312100-
WESTERN MARYLAND

CITY           SKY/WX    TMP DP  RH WIND       PRES   REMARKS
OAKLAND*       MOSUNNY   70  59  68 W5        30.19F
CUMBERLAND*    MOSUNNY   82  55  39 NW5       30.12S

$$

VAZ025>031-312100-
SHENANDOAH VALLEY

CITY           SKY/WX    TMP DP  RH WIND       PRES   REMARKS
WINCHESTER*    MOSUNNY   84  54  34 S6        30.09F
STAUNTON*      MOSUNNY   84  50  30 S6        30.12F

$$

WVZ021-048>050-054>055-312100-
EASTERN WEST VIRGINIA PANHANDLE

CITY           SKY/WX    TMP DP  RH WIND       PRES   REMARKS
MARTINSBURG    CLOUDY    82  55  39 E6        30.09F
PETERSBURG*    MOSUNNY   84  49  29 W7        30.09F

$$

VAZ036>039-050-312100-
CENTRAL FOOTHILLS

CITY           SKY/WX    TMP DP  RH WIND       PRES   REMARKS
CHARLOTTESVILL PTSUNNY   83  56  39 S8        30.10F
ORANGE*        MOSUNNY   86  54  32 S7        30.11S

$$

VAZ055>057-312100-
NORTH AND CENTRAL PIEDMONT

CITY           SKY/WX    TMP DP  RH WIND       PRES   REMARKS
FREDERICKSBRG* MOSUNNY   87  58  38 SW7       30.08F
STAFFORD*      MOSUNNY   86  56  36 S5        30.13S

$$

NCZ024-NYZ072-PAZ021-071-VAZ022-071-312100-
OTHER REGIONAL OBSERVATIONS

CITY           SKY/WX    TMP DP  RH WIND       PRES   REMARKS
NEW YORK CITY  PTSUNNY   76  61  59 CALM      30.11S
PHILADELPHIA   MOSUNNY   86  60  41 W14       30.09R
PITTSBURGH     MOSUNNY   77  59  53 SW10      30.09F
ROANOKE        PTSUNNY   79  60  52 SE10      30.14F
RICHMOND       CLOUDY    84  63  49 S8        30.11F
RALEIGH        CLOUDY    81  65  58 E7        30.13F

$$

ANZ530>537-312100-
MARINE OBSERVATIONS

STATION/POSITION TIME  TEMP    WIND        PRES
                       AIR SEA DIR/SP/G
                 (UTC) (F)     (DEG/KT/KT) (MB)
THOMAS PT LIGHT  2000   79 78  170/ 16/ 17 1019.2F
BALT KEY BRIDGE  2000   81     150/ 10/ 11 1018.2F
COVE POINT       2000   77     180/ 16/ 18 1019.2F
LEWISETTA        2000   80 80  190/ 10/ 12 1019.1F
SOLOMONS ISLAND  2000      80                N/A
PINEY POINT      2000          190/ 13/ 15   N/A

$$



USA.gov is the U.S. government's official web portal to all federal, state and local government web resources and services.